Change the Weather History Date:

Wednesday, May 7, 2014

  Actual Average Record
Temperature  
Mean Temperature 79 °F 77 °F  
Max Temperature 90 °F 87 °F 94 °F (1984)
Min Temperature 67 °F 67 °F 55 °F (1962)
Degree Days  
Heating Degree Days 0 0  
Month to date heating degree days 0 0  
Since 1 July heating degree days 149 260  
Cooling Degree Days 14 12  
Month to date cooling degree days 91 79  
Year to date cooling degree days 825 699  
Growing Degree Days 27 (Base 50)    
Moisture  
Dew Point 67 °F    
Average Humidity 70    
Maximum Humidity 93    
Minimum Humidity 46    
Precipitation  
Precipitation 0.00 in 0.09 in 3.18 in (1991)
Month to date precipitation 0.10 0.54  
Year to date precipitation 6.96 9.23  
Snow  
Snow 0.00 in - - ()
Month to date snowfall 0.0  
Since 1 July snowfall 0.0  
Snow Depth 0.00 in    
Sea Level Pressure  
Sea Level Pressure 30.06 in    
Wind  
Wind Speed 7 mph (East)    
Max Wind Speed 16 mph    
Max Gust Speed 20 mph    
Visibility 10 miles    
Events      
T = Trace of Precipitation, MM = Missing Value Source: NWS Daily Summary

Daily Weather History Graph

Daily Weather History Graph

Search for Another Location

Airport or City:

Trip Planner

Search our weather history database for the weather conditions in past years. The results will help you decide how hot, cold, wet, or windy it might be!

Date:

Astronomy

May. 07, 2014 Rise Set
Actual Time 6:45 AM EDT 8:02 PM EDT
Civil Twilight 6:20 AM EDT 8:26 PM EDT
Nautical Twilight 5:51 AM EDT 8:56 PM EDT
Astronomical Twilight 5:21 AM EDT 9:26 PM EDT
Moon 1:45 PM EDT 2:02 AM EDT
Length of Visible Light 14h 05m
Length of Day
13h 16m
First Quarter, 55% of the Moon is Illuminated
May 7
First Quarter
May 14
Full
May 21
Last Quarter
May 28
New
Jun 5
First Quarter

Hourly Weather History & Observations

Time (EDT) Temp. Heat Index Dew Point Humidity Pressure Visibility Wind Dir Wind Speed Gust Speed Precip Events Conditions
12:53 AM 73.9 °F - 66.0 °F 76% 30.03 in 10.0 mi ESE 6.9 mph - N/A   Clear
1:53 AM 72.0 °F - 66.0 °F 81% 30.01 in 10.0 mi East 4.6 mph - N/A   Clear
2:53 AM 70.0 °F - 64.9 °F 84% 30.01 in 10.0 mi ENE 3.5 mph - N/A   Clear
3:53 AM 70.0 °F - 64.9 °F 84% 30.01 in 10.0 mi NE 3.5 mph - N/A   Clear
5:53 AM 66.9 °F - 64.9 °F 93% 30.03 in 10.0 mi ENE 4.6 mph - N/A   Clear
6:53 AM 66.9 °F - 64.9 °F 93% 30.06 in 9.0 mi ENE 5.8 mph - N/A   Clear
7:10 AM 66.9 °F - 64.9 °F 93% 30.07 in 8.0 mi ENE 5.8 mph - N/A   Partly Cloudy
8:53 AM 77.0 °F - 68.0 °F 74% 30.09 in 10.0 mi East 9.2 mph - N/A   Clear
9:53 AM 81.0 °F 83.8 °F 68.0 °F 65% 30.10 in 10.0 mi East 8.1 mph - N/A   Clear
10:53 AM 84.0 °F 86.3 °F 66.0 °F 55% 30.10 in 10.0 mi ESE 8.1 mph 20.7 mph N/A   Clear
11:53 AM 84.9 °F 87.1 °F 66.0 °F 53% 30.09 in 10.0 mi East 9.2 mph - N/A   Clear
12:53 PM 88.0 °F 89.6 °F 64.9 °F 46% 30.08 in 10.0 mi SSE 5.8 mph - N/A   Mostly Cloudy
1:53 PM 86.0 °F 90.1 °F 69.1 °F 57% 30.06 in 10.0 mi SW 11.5 mph - N/A   Mostly Cloudy
2:51 PM 84.2 °F 88.4 °F 69.8 °F 62% 30.07 in 10.0 mi WNW 12.7 mph - N/A   Mostly Cloudy
2:53 PM 84.0 °F 88.4 °F 70.0 °F 63% 30.07 in 10.0 mi WNW 13.8 mph - N/A   Mostly Cloudy
3:53 PM 84.0 °F 87.8 °F 69.1 °F 61% 30.06 in 10.0 mi WSW 10.4 mph - N/A   Scattered Clouds
4:53 PM 84.0 °F 87.8 °F 69.1 °F 61% 30.05 in 10.0 mi West 9.2 mph - N/A   Partly Cloudy
6:53 PM 82.9 °F 87.5 °F 71.1 °F 67% 30.05 in 10.0 mi Variable 6.9 mph - N/A   Clear
7:53 PM 81.0 °F 84.4 °F 70.0 °F 69% 30.05 in 10.0 mi SW 3.5 mph - N/A   Clear
8:53 PM 80.1 °F 83.2 °F 70.0 °F 71% 30.07 in 10.0 mi Calm Calm - N/A   Clear
9:53 PM 80.1 °F 81.9 °F 64.9 °F 60% 30.09 in 10.0 mi East 8.1 mph - N/A   Clear
10:53 PM 78.1 °F - 66.0 °F 66% 30.12 in 10.0 mi East 10.4 mph - N/A   Clear
11:53 PM 75.9 °F - 68.0 °F 76% 30.12 in 10.0 mi East 10.4 mph - N/A   Clear